Simultaneous Nadir Overpasses (SNOs) Predictions

Prediction of SNOs over PacNW region [( 10.00, 139.50) to ( 22.70, 165.60)] between AQUA and NPP Satellites:

Table of predicted SNOs over PacNW region for the next 30.0 days since TLE Epoch: 6/25/2022
Index Date (AQUA) Time (AQUA) AQUA Lat,Lon Date (NPP) Time (NPP) NPP Lat,Lon Distance(km) Time Diff (sec)
1 06/28/2022 15:13:44 22.63, 159.73 06/28/2022 15:17:13 23.92, 155.91 415.43 209
2 07/01/2022 03:35:05 22.68, 147.50 07/01/2022 03:33:33 22.04, 144.39 327.49 92
3 07/09/2022 02:44:01 22.70, 160.31 07/09/2022 02:42:57 22.04, 157.05 342.84 64
4 07/11/2022 16:22:31 10.02, 140.61 07/11/2022 16:19:01 8.14, 137.83 370.06 210
5 07/17/2022 03:29:46 15.54, 150.07 07/17/2022 03:31:44 14.69, 146.11 435.60 118
6 07/19/2022 15:31:22 10.05, 153.44 07/19/2022 15:27:53 9.98, 150.91 277.65 209
